Valdosta, GA

1:08 PM EST on February 24, 2018 (GMT -0500)
Moody Air Force Base

Weather History for KVAD - March, 2013

Change the Weather History Date:

Wednesday, March 27, 2013

  Actual Average Record
Temperature  
Mean Temperature 44 °F -  
Max Temperature 58 °F 73 °F 84 °F (2011)
Min Temperature 32 °F 52 °F 32 °F (2013)
Degree Days  
Heating Degree Days 20    
Moisture  
Dew Point 28 °F    
Average Humidity 56    
Maximum Humidity 84    
Minimum Humidity 30    
Precipitation  
Precipitation 0.00 in - - ()
Sea Level Pressure  
Sea Level Pressure 30.30 in    
Wind  
Wind Speed 7 mph (NW)    
Max Wind Speed 13 mph    
Max Gust Speed -    
Visibility 10 miles    
Events Rain    
Averages and records for this station are not official NWS values.
T = Trace of Precipitation, MM = Missing Value Source: NWS Daily Summary

Daily Weather History Graph

Daily Weather History Graph

Search for Another Location

Airport or City:

Trip Planner

Search our weather history database for the weather conditions in past years. The results will help you decide how hot, cold, wet, or windy it might be!

Date:

Astronomy

Mar. 27, 2013 Rise Set
Actual Time 7:27 AM EDT 7:48 PM EDT
Civil Twilight 7:03 AM EDT 8:13 PM EDT
Nautical Twilight 6:35 AM EDT 8:41 PM EDT
Astronomical Twilight 6:06 AM EDT 9:10 PM EDT
Moon 8:25 PM EDT (3/27) 7:21 AM EDT (3/27)
Length of Visible Light 13h 09m
Length of Day
12h 21m
Full, 100% of the Moon is Illuminated
Mar 27
Full
Apr 3
Last Quarter
Apr 10
New
Apr 18
First Quarter
Apr 25
Full

Hourly Weather History & Observations

Time (EDT) Temp. Windchill Dew Point Humidity Pressure Visibility Wind Dir Wind Speed Gust Speed Precip Events Conditions
12:58 AM 37.9 °F 32.1 °F 27.7 °F 67% 30.30 in 10.0 mi NNW 8.1 mph - N/A   Clear
1:58 AM 37.0 °F 31.6 °F 27.3 °F 68% 30.30 in 10.0 mi NNW 6.9 mph - N/A   Clear
2:58 AM 36.1 °F 30.6 °F 28.0 °F 72% 30.29 in 10.0 mi NW 6.9 mph - N/A   Clear
3:58 AM 35.2 °F 30.3 °F 28.0 °F 75% 30.29 in 10.0 mi WNW 5.8 mph - N/A   Clear
4:58 AM 33.3 °F 27.9 °F 28.8 °F 84% 30.29 in 10.0 mi NW 5.8 mph - N/A   Clear
5:58 AM 32.9 °F 27.5 °F 27.7 °F 81% 30.29 in 10.0 mi NW 5.8 mph - N/A   Clear
6:58 AM 32.5 °F 28.1 °F 27.0 °F 80% 30.32 in 10.0 mi WNW 4.6 mph - N/A   Clear
7:58 AM 33.3 °F 25.7 °F 27.5 °F 79% 30.33 in 10.0 mi NNW 9.2 mph - N/A   Clear
8:58 AM 38.5 °F 32.1 °F 28.9 °F 69% 30.34 in 10.0 mi NNW 9.2 mph - N/A   Clear
9:58 AM 42.3 °F 36.3 °F 27.1 °F 55% 30.35 in 10.0 mi NNW 10.4 mph - N/A   Clear
10:58 AM 45.0 °F 40.6 °F 26.1 °F 48% 30.35 in 10.0 mi North 8.1 mph - N/A   Clear
11:58 AM 47.7 °F - 27.0 °F 45% 30.35 in 10.0 mi WNW 12.7 mph - N/A   Partly Cloudy
12:58 PM 50.5 °F - 26.8 °F 40% 30.34 in 10.0 mi NNW 9.2 mph - N/A   Clear
1:23 PM 51.8 °F - 28.4 °F 41% 30.32 in 10.0 mi Variable 3.5 mph - N/A Rain Light Rain
1:29 PM 51.8 °F - 26.6 °F 38% 30.32 in 10.0 mi West 8.1 mph - N/A   Clear
1:58 PM 52.7 °F - 28.0 °F 39% 30.32 in 10.0 mi NW 6.9 mph - 0.00 in   Clear
2:58 PM 55.2 °F - 28.2 °F 36% 30.30 in 10.0 mi NNW 11.5 mph - N/A   Clear
3:58 PM 56.8 °F - 27.7 °F 33% 30.27 in 10.0 mi Variable 6.9 mph - N/A   Clear
4:58 PM 57.6 °F - 26.4 °F 30% 30.26 in 10.0 mi North 8.1 mph - N/A   Clear
5:58 PM 57.7 °F - 26.4 °F 30% 30.25 in 10.0 mi West 9.2 mph - N/A   Clear
6:58 PM 56.3 °F - 26.1 °F 31% 30.25 in 10.0 mi NNW 10.4 mph - N/A   Clear
7:58 PM 51.1 °F - 28.4 °F 42% 30.26 in 10.0 mi NNW 5.8 mph - N/A   Clear
8:58 PM 46.6 °F - 29.5 °F 51% 30.27 in 10.0 mi South 2.3 mph - N/A   Clear
9:58 PM 45.0 °F - 32.0 °F 60% 30.29 in 10.0 mi Calm Calm - N/A   Clear
10:58 PM 42.1 °F - 34.5 °F 75% 30.29 in 10.0 mi Calm Calm - N/A   Clear
11:58 PM 40.3 °F - 32.7 °F 74% 30.28 in 10.0 mi South 1.2 mph - N/A   Clear